RH
31 30 29 26 22 20 18 19 17 18 18 18 20 21 19 22 21 20 21 21 18 18 19 18 21 21 25 24 30 26 26 19 18
31 29 23 22 20 20 19 18 18 18 19 22 21 21 21 23 24 25 27 28 28 29 24 28 25 39 52 38 37 39 37 32 27
29 24 24 22 21 19 19 17 18 19 22 22 25 27 26 27 27 27 32 37 54 37 34 39 32 65 88 67 47 40 51 58 49
24 26 25 22 20 17 16 19 22 24 24 27 31 35 35 33 33 37 41 51 63 59 60 47 48 96 100 82 74 64 59 72 54
29 24 23 22 16 19 22 27 23 24 27 32 38 46 45 39 45 50 54 61 58 54 77 58 60 100 100 100 99 77 72 93 78
26 23 21 19 25 27 29 27 26 30 40 47 41 43 49 54 60 59 65 53 50 69 94 67 78 100 100 100 100 93 81 98 73
20 19 24 31 31 30 31 33 34 37 43 51 42 45 49 60 71 68 63 64 75 100 100 72 87 100 100 100 100 100 99 100 97
23 27 33 33 33 38 42 40 45 57 67 88 86 72 67 81 95 98 94 79 52 96 88 81 96 100 100 100 100 100 100 100 89
31 38 39 40 40 43 50 57 56 53 61 54 57 41 51 72 99 100 100 100 85 82 86 90 80 72 100 100 100 99 100 100 100
40 42 40 39 47 46 54 70 85 86 85 89 93 81 84 100 100 92 90 100 100 96 98 94 78 94 100 99 100 100 100 100 100
43 44 44 45 46 50 61 78 87 100 100 99 87 98 100 100 99 65 77 76 84 87 88 91 100 100 100 100 100 100 100 100 100
43 44 43 50 56 58 68 76 100 100 63 53 62 80 88 62 62 62 79 93 100 100 100 100 100 100 100 100 100 100 100 100 100
45 47 50 54 60 70 81 85 69 65 69 67 64 69 60 60 64 74 82 84 82 87 94 97 88 82 95 98 100 100 100 100 100
54 66 62 65 71 60 54 60 65 68 72 75 72 70 75 68 72 58 64 51 42 42 56 63 64 72 78 86 94 100 100 100 100
58 52 52 58 59 58 80 78 79 86 82 71 71 57 76 80 54 60 52 40 36 45 56 56 67 74 80 88 90 100 100 100 100
42 50 56 50 55 76 97 100 100 98 67 63 69 67 60 59 51 47 47 56 54 57 69 84 86 84 80 79 77 95 100 100 100
58 57 62 66 70 77 63 56 62 76 76 71 67 58 78 56 54 60 67 66 71 81 83 83 77 79 69 72 74 92 100 100 100
64 56 53 52 44 46 44 45 47 60 74 78 58 55 64 66 78 73 85 93 97 88 85 78 87 81 77 58 70 90 100 100 100
56 44 37 42 42 45 48 44 39 41 45 65 58 60 67 63 55 76 95 100 99 96 96 94 98 78 69 55 63 85 100 100 100
56 66 69 67 54 54 46 38 36 51 43 53 54 51 59 62 67 87 99 99 98 97 97 100 98 100 73 51 62 71 100 100 100
Wind_Speed
38 40 41 44 46 48 45 41 34 28 28 31 33 34 36 38 42 43 45 47 49 50 53 55 60 60 60 62 61 63 63 61 62
40 41 44 45 46 46 45 32 26 26 30 32 34 36 39 40 41 43 44 46 50 52 55 58 60 60 61 62 64 63 66 67 69
42 44 46 45 44 41 36 26 27 28 31 31 35 38 41 39 40 43 44 45 50 53 54 59 59 60 60 62 65 65 66 68 70
42 45 44 43 38 31 25 24 25 29 30 33 37 40 40 40 40 44 45 48 49 52 55 58 57 61 60 63 64 63 66 67 70
44 41 42 37 25 22 22 25 27 28 32 35 40 41 41 41 42 45 48 49 52 53 54 57 56 59 60 63 64 66 68 66 68
40 40 30 21 20 23 26 27 28 31 34 38 41 42 43 45 47 47 49 51 52 56 58 58 57 59 60 62 61 66 69 66 69
29 20 18 20 24 25 28 31 35 36 38 41 44 46 48 49 50 51 52 53 55 59 59 62 63 62 64 64 61 67 70 67 70
22 19 22 23 26 28 31 32 35 39 42 44 44 48 49 52 54 55 55 56 57 62 61 65 65 64 67 64 63 66 66 71 70
22 23 25 27 29 29 32 36 39 41 42 45 47 52 52 55 61 63 63 61 63 66 65 67 67 66 69 69 68 70 69 70 71
22 26 29 32 31 34 37 42 44 47 48 51 53 56 59 63 62 63 63 65 67 70 70 74 75 73 72 73 73 74 71 72 69
28 31 34 36 38 43 47 50 53 55 56 56 57 61 63 66 62 68 69 71 75 76 77 79 79 77 74 74 72 71 72 72 70
34 37 41 43 46 49 51 53 56 52 54 56 56 60 62 68 69 72 74 76 78 76 75 76 79 81 81 79 76 71 73 70 69
39 42 45 48 51 53 54 54 54 57 58 59 61 65 67 69 74 74 75 73 78 80 81 83 85 85 84 82 81 80 70 68 70
43 45 48 48 49 52 54 55 56 58 61 62 65 68 74 75 75 76 73 77 77 77 76 78 79 80 82 83 81 80 77 73 66
46 47 46 50 53 54 60 62 64 66 66 70 73 75 78 79 77 72 72 69 71 74 77 79 81 84 84 87 86 80 77 76 72
43 47 53 55 56 59 63 67 69 72 76 78 78 76 75 79 68 68 68 74 76 77 78 81 84 88 85 91 89 81 77 75 74
47 51 56 60 59 63 65 67 70 73 78 80 80 77 74 71 70 69 73 78 79 79 83 83 84 87 93 92 89 83 71 72 72
53 59 62 61 64 68 72 75 79 80 84 85 80 74 63 65 72 73 77 78 81 83 84 85 88 90 94 94 91 81 67 65 70
60 62 62 64 67 72 76 77 82 85 90 87 74 65 67 71 68 71 76 78 82 86 89 89 92 95 95 95 92 77 67 68 71
70 69 71 73 76 79 81 84 86 89 88 78 66 66 72 73 71 69 75 78 82 87 89 94 96 98 97 97 91 76 67 68 74
Wind_Direction
281 286 288 291 294 294 294 295 294 292 302 307 310 313 315 318 317 318 321 323 327 329 331 335 334 335 337 342 347 342 345 346 349
285 288 289 290 291 293 296 292 290 297 304 309 313 319 322 321 321 321 325 328 328 330 332 333 333 334 336 339 340 340 342 344 344
285 287 288 291 294 291 291 288 294 302 309 317 323 325 324 324 325 325 325 327 326 326 329 332 333 333 335 336 338 340 340 340 342
286 287 292 292 292 291 290 296 302 312 318 321 322 323 325 327 325 325 325 325 324 324 325 330 331 332 334 334 334 336 337 336 338
287 290 289 290 289 299 301 304 311 313 317 318 321 322 322 321 322 323 323 322 321 321 321 326 329 328 329 331 330 332 334 333 334
286 288 285 288 299 300 301 306 311 309 312 314 318 318 318 320 320 318 318 317 319 318 317 322 324 325 324 326 325 327 329 330 330
286 279 286 295 300 304 307 309 308 307 312 313 319 321 320 319 318 316 317 316 314 314 317 319 321 321 321 321 323 323 325 325 326
274 277 289 299 306 309 307 306 309 307 308 310 311 314 314 314 312 311 308 312 313 313 314 318 320 320 320 319 318 319 320 321 322
277 289 297 302 307 305 304 305 305 305 304 307 310 313 314 313 315 316 314 313 314 311 311 316 317 318 317 317 316 317 316 315 318
285 297 302 303 300 304 304 308 306 305 306 307 307 308 308 308 310 312 311 309 310 311 309 309 314 314 312 312 312 312 312 313 313
289 298 302 303 306 307 307 309 307 304 304 306 306 304 304 308 306 308 306 308 309 309 309 310 311 311 309 310 309 309 309 309 308
298 303 304 302 299 300 303 303 303 305 306 305 304 306 305 305 303 306 309 309 308 308 307 307 307 308 307 306 305 304 304 305 305
296 292 292 293 293 295 298 301 302 305 303 302 300 301 304 305 307 308 308 308 308 307 305 304 305 305 305 305 303 302 300 300 304
291 293 296 297 298 300 301 301 300 299 302 303 303 304 304 307 306 308 306 308 308 308 307 310 312 312 311 309 305 300 298 296 295
294 295 296 300 299 298 304 302 303 304 302 304 303 304 305 307 308 306 306 310 311 313 312 314 315 315 313 311 309 299 293 295 293
292 297 298 303 301 299 299 298 299 300 301 302 303 304 306 305 310 311 313 313 312 313 312 314 314 316 316 315 311 301 294 291 291
291 296 296 297 297 297 299 299 300 301 303 305 306 305 304 305 308 312 312 311 311 312 314 316 318 319 318 315 312 305 293 290 291
294 298 299 299 302 301 300 302 302 303 304 306 306 304 303 309 311 309 310 314 314 314 316 317 319 319 318 319 314 304 294 296 295
293 298 296 294 299 302 302 304 305 306 306 305 303 302 307 308 304 305 309 311 313 315 316 317 320 320 320 319 314 303 289 284 284
296 296 297 296 295 301 300 301 301 303 305 303 302 304 306 303 304 307 308 312 312 315 317 317 319 319 320 320 314 304 291 286 286